User: anonymous   Login
Location: Poughquag
(41.6090°N, 73.6820°W)
Time: 14:11:53
(UTC-04:00)
Language:

N. Korean satellite - Orbit

View from above orbital plane
View from above orbital plane
View from above satellite
View from above satellite

Ground track
Ground track

The orbit data is extracted from the following two-line orbital elements,

1 39026U 12072A   19230.96517801 +.00000619 +00000-0 +25002-4 0  9993
2 39026 097.2123 232.1350 0036313 242.2672 117.4884 15.27925170370892
Epoch (UTC): 18 August 2019 23:09:51
Eccentricity: 0.0036313
inclination: 97.2123°
perigee height: 457 km
apogee height: 507 km
right ascension of ascending node: 232.1350°
argument of perigee: 242.2672°
revolutions per day: 15.27925170
mean anomaly at epoch: 117.4884°
orbit number at epoch: 37089

The dashed part of the orbit path shows where the satellite is in the earth's shadow,  

DLR